EW9945 Weather Reports


time (UTC)temp
C
wind
direction
speed
KPH
gust
KPH
rain 1hr
cm
rain 24hr
cm
rain mn
cm
humidity
%
barometer
mb
20260508060058 3 292 0.0 0.0 0.00 0.25 0.25 90 1012.2
20260508054558 3 292 0.0 0.0 0.00 0.25 0.25 90 1012.1
20260508053106 3 292 0.0 0.0 0.00 0.25 0.25 90 1012.1
20260508051558 3 292 0.0 0.0 0.00 0.25 0.25 89 1012.1
20260508044557 4 292 0.0 0.0 0.00 0.25 0.25 90 1012.0
20260508043104 4 292 0.0 0.0 0.00 0.25 0.25 89 1011.8
20260508041558 5 292 0.0 0.0 0.00 0.25 0.25 90 1011.8
20260508040057 5 292 0.0 0.0 0.00 0.25 0.25 89 1011.7
20260508034557 5 292 0.0 0.0 0.00 0.25 0.25 88 1011.6
20260508033056 5 292 0.0 0.0 0.03 0.25 0.25 88 1011.7
20260508031559 5 292 0.0 0.0 0.03 0.25 0.25 88 1011.7
20260508030101 5 292 0.0 0.0 0.10 0.25 0.25 88 1011.8
20260508024559 5 298 0.0 0.0 0.15 0.25 0.25 88 1011.7
20260508023054 6 301 0.0 1.6 0.20 0.23 0.23 86 1012.1
20260508021552 6 302 0.0 14.5 0.20 0.23 0.23 85 1012.0
20260508020052 6 276 0.0 3.2 0.15 0.18 0.18 84 1011.8
20260508014553 6 248 11.3 20.9 0.08 0.10 0.10 82 1011.6
20260508013103 8 307 20.9 35.4 0.00 0.03 0.03 69 1011.1
20260508011553 10 360 0.0 0.0 0.00 0.03 0.03 63 1010.1
20260508010052 10 360 0.0 0.0 0.00 0.03 0.03 56 1009.7
20260508004530 10 360 0.0 0.0 0.00 0.03 0.03 55 1009.6
20260508003030 10 360 0.0 0.0 0.00 0.03 0.03 58 1009.5
20260508000001 10 360 0.0 1.6 0.00 0.03 0.03 54 1009.4
20260507234500 10 360 0.0 4.8 0.00 0.03 0.03 51 1009.3
20260507233100 11 355 4.8 12.9 0.00 0.03 0.03 50 1009.0
20260507233001 11 355 6.4 12.9 0.00 0.03 0.03 50 1009.0
20260507230112 11 360 0.0 14.5 0.00 0.03 0.03 49 1009.0
20260507224601 11 349 6.4 16.1 0.00 0.03 0.03 48 1009.0
20260507223059 11 11 0.0 8.0 0.00 0.03 0.03 49 1009.0
20260507221700 12 337 0.0 8.0 0.00 0.03 0.03 47 1009.0
20260507220100 11 315 0.0 17.7 0.00 0.03 0.03 47 1009.0
20260507214559 12 360 1.6 12.9 0.00 0.03 0.03 47 1009.0
20260507213106 12 330 9.7 14.5 0.00 0.03 0.03 45 1009.0
20260507211659 12 5 0.0 11.3 0.00 0.03 0.03 46 1008.9
20260507210059 12 360 6.4 11.3 0.00 0.03 0.03 45 1008.9
20260507204602 12 309 6.4 14.5 0.00 0.03 0.03 42 1008.9
20260507203057 13 9 0.0 11.3 0.00 0.03 0.03 44 1009.0
20260507201656 12 355 4.8 14.5 0.00 0.03 0.03 46 1009.1
20260507200057 12 333 12.9 25.7 0.00 0.03 0.03 45 1009.3
20260507194602 12 315 6.4 16.1 0.00 0.03 0.03 42 1009.3
20260507193055 12 339 8.0 16.1 0.00 0.03 0.03 44 1009.4
20260507191655 12 355 9.7 17.7 0.00 0.03 0.03 44 1009.6
20260507190052 12 334 9.7 19.3 0.00 0.03 0.03 44 1009.5
20260507184558 12 329 8.0 19.3 0.00 0.03 0.03 46 1009.7
20260507183049 12 311 9.7 22.5 0.00 0.03 0.03 44 1009.9
20260507181650 13 302 11.3 22.5 0.00 0.03 0.03 41 1010.0
20260507180046 12 312 1.6 20.9 0.00 0.10 0.03 45 1010.1
20260507174547 12 297 6.4 19.3 0.00 0.10 0.03 43 1010.2
20260507173044 12 291 11.3 22.5 0.00 0.10 0.03 42 1010.4
20260507171643 12 307 12.9 22.5 0.00 0.10 0.03 43 1010.6
20260507170042 11 298 8.0 19.3 0.00 0.30 0.03 45 1010.7
20260507164555 11 330 12.9 22.5 0.00 0.30 0.03 43 1010.8
20260507163039 11 319 12.9 19.3 0.00 0.30 0.03 46 1011.0
20260507161638 10 317 8.0 17.7 0.00 0.30 0.03 48 1011.3
20260507160038 11 294 12.9 22.5 0.00 0.30 0.03 46 1011.3
20260507154537 12 306 12.9 27.4 0.00 0.30 0.03 46 1011.3
20260507153032 11 304 3.2 20.9 0.00 0.30 0.03 49 1011.5
20260507151630 10 323 4.8 19.3 0.00 0.30 0.03 47 1011.6
20260507150029 10 257 0.0 8.0 0.00 0.30 0.03 54 1011.9
20260507144528 10 317 4.8 16.1 0.00 0.30 0.03 51 1011.9
20260507143043 10 297 4.8 25.7 0.00 0.30 0.03 55 1012.2
20260507141626 10 309 6.4 12.9 0.00 0.30 0.03 55 1012.2
20260507140025 10 275 0.0 9.7 0.00 0.36 0.03 59 1012.2
20260507134523 10 227 3.2 11.3 0.00 0.36 0.03 60 1012.3
20260507133021 10 295 3.2 8.0 0.00 0.36 0.03 64 1012.5
20260507131619 8 302 0.0 6.4 0.00 0.36 0.03 70 1012.6
20260507130031 8 301 1.6 8.0 0.00 0.56 0.03 68 1012.5
20260507124518 8 295 0.0 6.4 0.00 0.56 0.03 72 1012.4
20260507123015 8 225 0.0 0.0 0.00 0.56 0.03 78 1012.5
20260507121612 7 221 0.0 0.0 0.03 0.56 0.03 79 1012.6
20260507120008 6 220 0.0 0.0 0.03 0.71 0.03 82 1012.6
20260507114503 5 220 0.0 0.0 0.03 0.71 0.03 86 1012.4
20260507113101 5 220 0.0 0.0 0.03 0.71 0.03 87 1012.5
20260507111558 3 220 0.0 0.0 0.00 0.69 0.00 92 1012.7
20260507110056 2 220 0.0 0.0 0.00 0.76 0.00 92 1012.5
20260507104558 2 220 0.0 0.0 0.00 0.76 0.00 91 1012.4
20260507103052 2 220 0.0 0.0 0.00 0.76 0.00 91 1012.2
20260507101551 2 220 0.0 0.0 0.00 0.76 0.00 91 1012.0
20260507100056 2 220 0.0 0.0 0.00 0.89 0.00 91 1012.0
20260507094548 2 291 0.0 0.0 0.00 0.89 0.00 90 1011.8
20260507093044 2 291 0.0 0.0 0.00 0.89 0.00 90 1011.7
20260507091544 2 291 0.0 0.0 0.00 0.89 0.00 89 1011.9
20260507090049 3 291 0.0 0.0 0.00 0.99 0.89 89 1012.0
20260507084548 3 291 0.0 0.0 0.00 0.99 0.89 88 1012.0
20260507083037 3 291 0.0 0.0 0.00 0.99 0.89 88 1012.0
20260507081536 3 291 0.0 0.0 0.00 0.99 0.89 85 1012.0
20260507080035 3 291 0.0 0.0 0.00 1.12 0.89 84 1011.9
20260507074532 5 291 0.0 0.0 0.00 1.12 0.89 81 1011.9
20260507073033 5 291 0.0 0.0 0.00 1.12 0.89 80 1011.9
20260507071535 5 291 0.0 0.0 0.00 1.12 0.89 81 1011.8
20260507070033 5 291 0.0 4.8 0.00 1.12 0.89 81 1011.6
20260507064544 5 291 0.0 0.0 0.00 1.12 0.89 81 1011.7
20260507063030 5 291 0.0 0.0 0.00 1.12 0.89 80 1012.0
20260507061529 5 291 0.0 0.0 0.00 1.12 0.89 79 1012.0